| time (UTC) | temp C | wind direction | speed KPH | gust KPH | rain 1hr cm | rain 24hr cm | rain mn cm | humidity % | barometer mb |
| 20260503174915 | 10 | 271 | 17.7 | 22.5 | 0.00 | 0.00 | 0.00 | 51 | 1018.0 |
| 20260503174415 | 10 | 309 | 6.4 | 11.3 | 0.00 | 0.00 | 0.00 | 44 | 1017.9 |
| 20260503173914 | 10 | 232 | 11.3 | 20.9 | 0.00 | 0.00 | 0.00 | 46 | 1018.0 |
| 20260503173411 | 10 | 261 | 6.4 | 16.1 | 0.00 | 0.00 | 0.00 | 46 | 1018.0 |
| 20260503172908 | 10 | 302 | 3.2 | 17.7 | 0.00 | 0.00 | 0.00 | 46 | 1018.0 |
| 20260503172405 | 9 | 299 | 16.1 | 20.9 | 0.00 | 0.00 | 0.00 | 48 | 1018.1 |
| 20260503171901 | 10 | 262 | 6.4 | 22.5 | 0.00 | 0.00 | 0.00 | 45 | 1018.2 |
| 20260503171358 | 10 | 283 | 4.8 | 24.1 | 0.00 | 0.00 | 0.00 | 48 | 1018.2 |
| 20260503170855 | 10 | 247 | 11.3 | 22.5 | 0.00 | 0.00 | 0.00 | 49 | 1018.2 |
| 20260503170352 | 9 | 306 | 6.4 | 11.3 | 0.00 | 0.00 | 0.00 | 47 | 1018.2 |
| 20260503150744 | 7 | 306 | 6.4 | 9.7 | 0.00 | 0.00 | 0.00 | 59 | 1019.2 |
| 20260503150240 | 7 | 257 | 8.0 | 14.5 | 0.00 | 0.00 | 0.00 | 55 | 1019.2 |
| 20260503140204 | 6 | 270 | 9.7 | 17.7 | 0.00 | 0.00 | 0.00 | 61 | 1019.2 |
| 20260503131134 | 5 | 305 | 6.4 | 12.9 | 0.00 | 0.00 | 0.00 | 69 | 1018.9 |
| 20260503130632 | 5 | 227 | 12.9 | 16.1 | 0.00 | 0.00 | 0.00 | 67 | 1018.9 |
| 20260503130129 | 5 | 287 | 6.4 | 11.3 | 0.00 | 0.00 | 0.00 | 69 | 1018.9 |
| 20260503110510 | 0 | 268 | 1.6 | 3.2 | 0.00 | 0.00 | 0.00 | 96 | 1018.1 |
| 20260503090356 | 0 | 281 | 0.0 | 0.0 | 0.00 | 0.00 | 0.00 | 95 | 1017.1 |
| 20260503081323 | 0 | 291 | 0.0 | 0.0 | 0.00 | 0.00 | 0.00 | 94 | 1016.9 |
| 20260503080820 | 0 | 291 | 0.0 | 0.0 | 0.00 | 0.00 | 0.00 | 94 | 1016.9 |
| 20260503080317 | 0 | 286 | 0.0 | 0.0 | 0.00 | 0.00 | 0.00 | 93 | 1016.8 |
| 20260503072753 | 1 | 278 | 0.0 | 0.0 | 0.00 | 0.00 | 0.00 | 88 | 1016.5 |
| 20260503072250 | 1 | 273 | 0.0 | 3.2 | 0.00 | 0.00 | 0.00 | 88 | 1016.4 |
| 20260503071746 | 1 | 282 | 1.6 | 4.8 | 0.00 | 0.00 | 0.00 | 88 | 1016.5 |
| 20260503071243 | 1 | 276 | 1.6 | 3.2 | 0.00 | 0.00 | 0.00 | 88 | 1016.5 |
| 20260503070739 | 1 | 277 | 3.2 | 4.8 | 0.00 | 0.00 | 0.00 | 87 | 1016.4 |
| 20260503070237 | 1 | 279 | 1.6 | 4.8 | 0.00 | 0.00 | 0.00 | 88 | 1016.5 |
| 20260503060151 | 2 | 277 | 1.6 | 4.8 | 0.00 | 0.00 | 0.00 | 87 | 1016.3 |
| 20260503054638 | 2 | 262 | 1.6 | 3.2 | 0.00 | 0.00 | 0.00 | 87 | 1016.4 |
| 20260503054136 | 2 | 268 | 4.8 | 4.8 | 0.00 | 0.00 | 0.00 | 87 | 1016.4 |
| 20260503053633 | 2 | 266 | 3.2 | 3.2 | 0.00 | 0.00 | 0.00 | 86 | 1016.4 |
| 20260503053132 | 2 | 280 | 3.2 | 6.4 | 0.00 | 0.00 | 0.00 | 87 | 1016.5 |
| 20260503052628 | 2 | 276 | 1.6 | 3.2 | 0.00 | 0.00 | 0.00 | 86 | 1016.5 |
| 20260503052124 | 2 | 276 | 1.6 | 4.8 | 0.00 | 0.00 | 0.00 | 86 | 1016.4 |
| 20260503051619 | 2 | 274 | 1.6 | 3.2 | 0.00 | 0.00 | 0.00 | 86 | 1016.4 |
| 20260503051118 | 2 | 271 | 3.2 | 4.8 | 0.00 | 0.00 | 0.00 | 85 | 1016.5 |
| 20260503050614 | 2 | 284 | 0.0 | 0.0 | 0.00 | 0.00 | 0.00 | 85 | 1016.5 |
| 20260503050111 | 2 | 287 | 1.6 | 1.6 | 0.00 | 0.00 | 0.00 | 85 | 1016.6 |
| 20260503045608 | 2 | 265 | 1.6 | 3.2 | 0.00 | 0.00 | 0.00 | 84 | 1016.5 |
| 20260503045105 | 2 | 264 | 1.6 | 3.2 | 0.00 | 0.00 | 0.00 | 83 | 1016.8 |
| 20260503044602 | 2 | 273 | 0.0 | 0.0 | 0.00 | 0.00 | 0.00 | 84 | 1016.6 |
| 20260503044059 | 2 | 276 | 0.0 | 0.0 | 0.00 | 0.00 | 0.00 | 84 | 1016.9 |
| 20260503043555 | 2 | 276 | 0.0 | 0.0 | 0.00 | 0.00 | 0.00 | 84 | 1016.6 |
| 20260503043052 | 2 | 276 | 0.0 | 0.0 | 0.00 | 0.00 | 0.00 | 82 | 1016.6 |
| 20260503042549 | 2 | 273 | 0.0 | 0.0 | 0.00 | 0.00 | 0.00 | 83 | 1016.8 |
| 20260503042045 | 2 | 279 | 0.0 | 0.0 | 0.00 | 0.00 | 0.00 | 82 | 1016.6 |
| 20260503041543 | 2 | 279 | 0.0 | 0.0 | 0.00 | 0.00 | 0.00 | 82 | 1016.6 |
| 20260503041040 | 2 | 279 | 0.0 | 0.0 | 0.00 | 0.00 | 0.00 | 82 | 1016.8 |
| 20260503040537 | 2 | 306 | 0.0 | 0.0 | 0.00 | 0.00 | 0.00 | 83 | 1016.8 |
| 20260503040034 | 2 | 300 | 0.0 | 1.6 | 0.00 | 0.00 | 0.00 | 84 | 1016.6 |
| 20260503035531 | 2 | 301 | 0.0 | 0.0 | 0.00 | 0.00 | 0.00 | 83 | 1017.0 |
| 20260503035029 | 2 | 293 | 1.6 | 3.2 | 0.00 | 0.00 | 0.00 | 81 | 1017.0 |
| 20260503034526 | 2 | 300 | 1.6 | 3.2 | 0.00 | 0.00 | 0.00 | 81 | 1016.8 |
| 20260503034022 | 2 | 307 | 1.6 | 1.6 | 0.00 | 0.00 | 0.00 | 81 | 1016.9 |
| 20260503033520 | 2 | 307 | 0.0 | 1.6 | 0.00 | 0.00 | 0.00 | 81 | 1016.8 |
| 20260503033018 | 2 | 297 | 4.8 | 6.4 | 0.00 | 0.00 | 0.00 | 81 | 1016.6 |
| 20260503032516 | 2 | 299 | 0.0 | 1.6 | 0.00 | 0.00 | 0.00 | 82 | 1016.8 |
| 20260503032014 | 2 | 319 | 0.0 | 1.6 | 0.00 | 0.00 | 0.00 | 81 | 1016.9 |
| 20260503031511 | 2 | 298 | 0.0 | 1.6 | 0.00 | 0.00 | 0.00 | 82 | 1016.8 |
| 20260503031008 | 2 | 310 | 0.0 | 0.0 | 0.00 | 0.00 | 0.00 | 82 | 1016.8 |
| 20260503030504 | 2 | 305 | 0.0 | 0.0 | 0.00 | 0.00 | 0.00 | 82 | 1016.8 |
| 20260503030001 | 2 | 315 | 0.0 | 1.6 | 0.00 | 0.00 | 0.00 | 80 | 1016.8 |
| 20260503025458 | 2 | 316 | 1.6 | 1.6 | 0.00 | 0.00 | 0.00 | 80 | 1016.8 |
| 20260503024956 | 2 | 317 | 0.0 | 0.0 | 0.00 | 0.00 | 0.00 | 81 | 1017.0 |
| 20260503024452 | 2 | 321 | 0.0 | 1.6 | 0.00 | 0.00 | 0.00 | 80 | 1016.9 |
| 20260503023949 | 2 | 305 | 0.0 | 1.6 | 0.00 | 0.00 | 0.00 | 80 | 1017.0 |
| 20260503023446 | 2 | 289 | 4.8 | 4.8 | 0.00 | 0.00 | 0.00 | 79 | 1016.9 |
| 20260503022943 | 3 | 310 | 1.6 | 4.8 | 0.00 | 0.00 | 0.00 | 78 | 1017.0 |
| 20260503022438 | 3 | 345 | 0.0 | 1.6 | 0.00 | 0.00 | 0.00 | 78 | 1016.9 |
| 20260503021934 | 3 | 331 | 3.2 | 6.4 | 0.00 | 0.00 | 0.00 | 77 | 1016.9 |
| 20260503021430 | 3 | 295 | 6.4 | 9.7 | 0.00 | 0.00 | 0.00 | 77 | 1017.0 |
| 20260503020928 | 3 | 343 | 0.0 | 3.2 | 0.00 | 0.00 | 0.00 | 78 | 1017.1 |
| 20260503020426 | 3 | 351 | 0.0 | 3.2 | 0.00 | 0.00 | 0.00 | 77 | 1017.0 |
| 20260503015922 | 3 | 317 | 4.8 | 6.4 | 0.00 | 0.00 | 0.00 | 78 | 1017.0 |
| 20260503015419 | 3 | 7 | 3.2 | 4.8 | 0.00 | 0.00 | 0.00 | 78 | 1017.2 |
| 20260503014915 | 3 | 318 | 1.6 | 6.4 | 0.00 | 0.00 | 0.00 | 78 | 1016.8 |
| 20260503014412 | 3 | 331 | 11.3 | 12.9 | 0.00 | 0.00 | 0.00 | 78 | 1016.8 |
| 20260503013910 | 3 | 299 | 0.0 | 0.0 | 0.00 | 0.00 | 0.00 | 79 | 1016.8 |
| 20260503013406 | 3 | 285 | 3.2 | 4.8 | 0.00 | 0.00 | 0.00 | 79 | 1016.6 |
| 20260503012904 | 3 | 356 | 1.6 | 6.4 | 0.00 | 0.00 | 0.00 | 78 | 1016.4 |
| 20260503012401 | 3 | 315 | 6.4 | 6.4 | 0.00 | 0.00 | 0.00 | 77 | 1016.5 |
| 20260503011858 | 3 | 332 | 0.0 | 1.6 | 0.00 | 0.00 | 0.00 | 79 | 1016.8 |
| 20260503011355 | 3 | 289 | 1.6 | 3.2 | 0.00 | 0.00 | 0.00 | 80 | 1016.6 |
| 20260503010851 | 3 | 351 | 0.0 | 4.8 | 0.00 | 0.00 | 0.00 | 79 | 1016.4 |
| 20260503010348 | 3 | 321 | 3.2 | 4.8 | 0.00 | 0.00 | 0.00 | 79 | 1016.6 |
| 20260503005845 | 3 | 315 | 3.2 | 4.8 | 0.00 | 0.00 | 0.00 | 79 | 1016.3 |
| 20260503005343 | 3 | 357 | 0.0 | 1.6 | 0.00 | 0.00 | 0.00 | 79 | 1016.5 |
| 20260503004838 | 3 | 309 | 1.6 | 1.6 | 0.00 | 0.00 | 0.00 | 79 | 1016.2 |
| 20260503004336 | 3 | 358 | 1.6 | 4.8 | 0.00 | 0.00 | 0.00 | 79 | 1016.1 |
| 20260503003833 | 3 | 261 | 1.6 | 3.2 | 0.00 | 0.00 | 0.00 | 78 | 1016.1 |
| 20260503003330 | 3 | 308 | 3.2 | 6.4 | 0.00 | 0.00 | 0.00 | 76 | 1016.2 |
| 20260503002827 | 3 | 316 | 3.2 | 3.2 | 0.00 | 0.00 | 0.00 | 76 | 1016.0 |
| 20260503002324 | 4 | 304 | 0.0 | 3.2 | 0.00 | 0.00 | 0.00 | 76 | 1016.0 |
| 20260503001820 | 4 | 3 | 0.0 | 1.6 | 0.00 | 0.00 | 0.00 | 77 | 1016.0 |
| 20260503001316 | 4 | 351 | 0.0 | 4.8 | 0.00 | 0.00 | 0.00 | 74 | 1016.2 |
| 20260503000814 | 4 | 292 | 3.2 | 3.2 | 0.00 | 0.00 | 0.00 | 74 | 1016.1 |
| 20260503000312 | 4 | 332 | 4.8 | 4.8 | 0.00 | 0.00 | 0.00 | 73 | 1016.2 |
| 20260502235808 | 4 | 293 | 4.8 | 4.8 | 0.00 | 0.00 | 0.00 | 74 | 1016.0 |
| 20260502235306 | 5 | 359 | 1.6 | 1.6 | 0.00 | 0.00 | 0.00 | 75 | 1016.0 |
| 20260502234802 | 5 | 319 | 0.0 | 4.8 | 0.00 | 0.00 | 0.00 | 75 | 1016.1 |
| 20260502234259 | 5 | 0 | 1.6 | 4.8 | 0.00 | 0.00 | 0.00 | 74 | 1015.7 |
| 20260502233755 | 5 | 307 | 3.2 | 6.4 | 0.00 | 0.00 | 0.00 | 73 | 1015.8 |
| 20260502233252 | 5 | 306 | 6.4 | 11.3 | 0.00 | 0.00 | 0.00 | 72 | 1015.6 |
| 20260502232748 | 5 | 302 | 6.4 | 6.4 | 0.00 | 0.00 | 0.00 | 72 | 1015.7 |
| 20260502232245 | 5 | 21 | 3.2 | 6.4 | 0.00 | 0.00 | 0.00 | 71 | 1015.6 |
| 20260502231742 | 5 | 318 | 6.4 | 6.4 | 0.00 | 0.00 | 0.00 | 71 | 1015.6 |
| 20260502231240 | 5 | 18 | 0.0 | 4.8 | 0.00 | 0.00 | 0.00 | 70 | 1015.3 |
| 20260502230738 | 5 | 0 | 0.0 | 0.0 | 0.00 | 0.00 | 0.00 | 70 | 1015.5 |
| 20260502230236 | 5 | 305 | 6.4 | 11.3 | 0.00 | 0.00 | 0.00 | 69 | 1015.4 |
| 20260502225732 | 5 | 16 | 8.0 | 9.7 | 0.00 | 0.00 | 0.00 | 68 | 1015.4 |
| 20260502225229 | 6 | 318 | 0.0 | 1.6 | 0.00 | 0.00 | 0.00 | 70 | 1015.3 |
| 20260502224725 | 6 | 6 | 0.0 | 4.8 | 0.00 | 0.00 | 0.00 | 67 | 1015.3 |
| 20260502224222 | 6 | 325 | 3.2 | 12.9 | 0.00 | 0.00 | 0.00 | 66 | 1015.4 |
| 20260502223720 | 6 | 297 | 3.2 | 11.3 | 0.00 | 0.00 | 0.00 | 66 | 1015.3 |
| 20260502223218 | 6 | 280 | 6.4 | 9.7 | 0.00 | 0.00 | 0.00 | 65 | 1015.2 |
| 20260502222715 | 6 | 305 | 6.4 | 6.4 | 0.00 | 0.00 | 0.00 | 65 | 1015.1 |
| 20260502222212 | 6 | 26 | 4.8 | 6.4 | 0.00 | 0.00 | 0.00 | 65 | 1015.1 |
| 20260502221708 | 7 | 29 | 6.4 | 9.7 | 0.00 | 0.00 | 0.00 | 63 | 1014.9 |
| 20260502221204 | 7 | 20 | 9.7 | 14.5 | 0.00 | 0.00 | 0.00 | 60 | 1014.7 |
| 20260502220700 | 7 | 7 | 0.0 | 11.3 | 0.00 | 0.00 | 0.00 | 57 | 1014.7 |
| 20260502220157 | 7 | 296 | 9.7 | 11.3 | 0.00 | 0.00 | 0.00 | 56 | 1014.7 |
| 20260502215654 | 7 | 296 | 1.6 | 11.3 | 0.00 | 0.00 | 0.00 | 56 | 1014.6 |
| 20260502215151 | 7 | 303 | 6.4 | 11.3 | 0.00 | 0.00 | 0.00 | 54 | 1014.5 |
| 20260502214648 | 7 | 90 | 4.8 | 14.5 | 0.00 | 0.00 | 0.00 | 55 | 1014.7 |
| 20260502214145 | 7 | 256 | 4.8 | 9.7 | 0.00 | 0.00 | 0.00 | 56 | 1014.9 |
| 20260502213642 | 7 | 24 | 3.2 | 11.3 | 0.00 | 0.00 | 0.00 | 57 | 1015.0 |
| 20260502213140 | 7 | 297 | 1.6 | 9.7 | 0.00 | 0.00 | 0.00 | 58 | 1014.7 |
| 20260502212638 | 7 | 79 | 6.4 | 12.9 | 0.00 | 0.00 | 0.00 | 59 | 1014.6 |
| 20260502212136 | 7 | 305 | 6.4 | 11.3 | 0.00 | 0.00 | 0.00 | 60 | 1014.5 |
| 20260502211631 | 7 | 322 | 4.8 | 4.8 | 0.00 | 0.00 | 0.00 | 58 | 1014.5 |
| 20260502211129 | 7 | 287 | 3.2 | 14.5 | 0.00 | 0.00 | 0.00 | 58 | 1014.6 |
| 20260502210626 | 7 | 304 | 4.8 | 12.9 | 0.00 | 0.00 | 0.00 | 59 | 1014.4 |
| 20260502210123 | 7 | 288 | 6.4 | 14.5 | 0.00 | 0.00 | 0.00 | 58 | 1014.6 |
| 20260502205620 | 7 | 254 | 1.6 | 17.7 | 0.00 | 0.00 | 0.00 | 59 | 1014.4 |
| 20260502205117 | 7 | 357 | 3.2 | 6.4 | 0.00 | 0.00 | 0.00 | 58 | 1014.4 |
| 20260502204614 | 7 | 277 | 8.0 | 9.7 | 0.00 | 0.00 | 0.00 | 58 | 1014.5 |
| 20260502204111 | 7 | 277 | 4.8 | 24.1 | 0.00 | 0.00 | 0.00 | 60 | 1014.6 |
| 20260502203608 | 7 | 311 | 6.4 | 12.9 | 0.00 | 0.00 | 0.00 | 57 | 1014.4 |
| 20260502203105 | 8 | 296 | 8.0 | 12.9 | 0.00 | 0.00 | 0.00 | 57 | 1014.5 |
| 20260502202601 | 7 | 282 | 11.3 | 14.5 | 0.00 | 0.00 | 0.00 | 57 | 1014.7 |
| 20260502202059 | 7 | 42 | 9.7 | 17.7 | 0.00 | 0.00 | 0.00 | 57 | 1014.6 |
| 20260502201555 | 7 | 308 | 4.8 | 14.5 | 0.00 | 0.00 | 0.00 | 60 | 1014.5 |
| 20260502201052 | 7 | 299 | 1.6 | 20.9 | 0.00 | 0.00 | 0.00 | 58 | 1014.6 |
| 20260502200548 | 7 | 287 | 12.9 | 14.5 | 0.00 | 0.00 | 0.00 | 58 | 1014.5 |
| 20260502200046 | 7 | 301 | 9.7 | 16.1 | 0.00 | 0.00 | 0.00 | 57 | 1014.7 |
| 20260502195543 | 8 | 308 | 6.4 | 22.5 | 0.00 | 0.00 | 0.00 | 55 | 1014.5 |
| 20260502195039 | 8 | 289 | 12.9 | 14.5 | 0.00 | 0.00 | 0.00 | 56 | 1014.6 |
| 20260502194536 | 8 | 277 | 11.3 | 12.9 | 0.00 | 0.00 | 0.00 | 55 | 1014.6 |
| 20260502194032 | 8 | 289 | 8.0 | 11.3 | 0.00 | 0.00 | 0.00 | 55 | 1014.6 |
| 20260502193530 | 8 | 293 | 6.4 | 11.3 | 0.00 | 0.00 | 0.00 | 54 | 1014.6 |
| 20260502193026 | 8 | 211 | 4.8 | 6.4 | 0.00 | 0.00 | 0.00 | 55 | 1014.9 |
| 20260502192522 | 8 | 317 | 0.0 | 4.8 | 0.00 | 0.00 | 0.00 | 59 | 1015.0 |
| 20260502192020 | 8 | 275 | 3.2 | 12.9 | 0.00 | 0.00 | 0.00 | 58 | 1014.9 |
| 20260502191516 | 8 | 294 | 9.7 | 16.1 | 0.00 | 0.00 | 0.00 | 56 | 1015.0 |
| 20260502191014 | 8 | 284 | 6.4 | 14.5 | 0.00 | 0.00 | 0.00 | 55 | 1015.1 |
| 20260502190511 | 7 | 287 | 8.0 | 20.9 | 0.00 | 0.00 | 0.00 | 60 | 1015.1 |
| 20260502190003 | 7 | 273 | 6.4 | 11.3 | 0.00 | 0.00 | 0.00 | 60 | 1015.2 |
| 20260502185458 | 7 | 294 | 6.4 | 6.4 | 0.00 | 0.00 | 0.00 | 58 | 1015.3 |
| 20260502184954 | 8 | 295 | 3.2 | 9.7 | 0.00 | 0.00 | 0.00 | 60 | 1015.1 |
| 20260502184449 | 8 | 300 | 9.7 | 12.9 | 0.00 | 0.00 | 0.00 | 54 | 1015.1 |
| 20260502183946 | 8 | 295 | 12.9 | 20.9 | 0.00 | 0.00 | 0.00 | 54 | 1015.1 |
| 20260502183437 | 8 | 292 | 3.2 | 4.8 | 0.00 | 0.00 | 0.00 | 57 | 1015.2 |
| 20260502182932 | 8 | 317 | 9.7 | 12.9 | 0.00 | 0.00 | 0.00 | 55 | 1015.2 |
| 20260502182428 | 8 | 333 | 1.6 | 3.2 | 0.00 | 0.00 | 0.00 | 58 | 1015.3 |
| 20260502181924 | 7 | 346 | 12.9 | 16.1 | 0.00 | 0.00 | 0.00 | 57 | 1015.4 |
| 20260502181423 | 7 | 352 | 3.2 | 11.3 | 0.00 | 0.00 | 0.00 | 59 | 1015.5 |
| 20260502180921 | 7 | 345 | 6.4 | 12.9 | 0.00 | 0.00 | 0.00 | 57 | 1015.6 |
| 20260502180418 | 7 | 289 | 6.4 | 11.3 | 0.00 | 0.00 | 0.00 | 56 | 1015.4 |